FW8409 Weather Reports


Display with metric or nautical units.
time (UTC)temp
F
wind
direction
speed
MPH
gust
MPH
rain 1hr
in
rain 24hr
in
rain mn
in
humidity
%
barometer
mb
20260503194121 86 259 0.0 1.0 0.00 0.00 0.00 34 1013.9
20260503193120 85 271 0.0 0.0 0.00 0.00 0.00 35 1014.1
20260503192117 83 261 0.0 2.0 0.00 0.00 0.00 35 1014.3
20260503191117 81 253 0.0 2.0 0.00 0.00 0.00 41 1014.3
20260503190117 79 269 0.0 1.0 0.00 0.00 0.00 48 1014.3
20260503185114 78 261 0.0 1.0 0.00 0.00 0.00 46 1014.3
20260503184112 77 260 0.0 2.0 0.00 0.00 0.00 47 1014.8
20260503183112 76 255 0.0 0.0 0.00 0.00 0.00 47 1014.9
20260503182108 74 264 0.0 2.0 0.00 0.00 0.00 49 1014.8
20260503181107 74 318 1.0 2.0 0.00 0.00 0.00 50 1014.9
20260503175056 73 250 0.0 0.0 0.00 0.00 0.00 56 1014.9
20260503174055 72 252 0.0 1.0 0.00 0.00 0.00 56 1015.2
20260503173053 71 255 0.0 2.0 0.00 0.00 0.00 57 1015.3
20260503172053 68 256 0.0 0.0 0.00 0.00 0.00 69 1015.6
20260503171053 69 256 0.0 0.0 0.00 0.00 0.00 67 1015.2
20260503131019 51 256 0.0 0.0 0.00 0.00 0.00 99 1015.6
20260503080925 56 264 0.0 0.0 0.00 0.00 0.00 94 1016.2
20260503072915 57 261 0.0 0.0 0.00 0.00 0.00 92 1016.5
20260503071915 57 261 0.0 0.0 0.00 0.00 0.00 92 1016.3
20260503070914 58 261 0.0 0.0 0.00 0.00 0.00 92 1016.2
20260503054854 60 261 0.0 0.0 0.00 0.00 0.00 86 1016.1
20260503053854 61 261 0.0 0.0 0.00 0.00 0.00 85 1016.2
20260503052853 61 263 0.0 0.0 0.00 0.00 0.00 84 1015.7
20260503051852 61 255 0.0 0.0 0.00 0.00 0.00 85 1016.1
20260503050852 62 257 0.0 0.0 0.00 0.00 0.00 83 1016.5
20260503045851 62 257 0.0 0.0 0.00 0.00 0.00 82 1016.5
20260503044850 62 259 0.0 0.0 0.00 0.00 0.00 81 1016.3
20260503043850 62 256 0.0 0.0 0.00 0.00 0.00 82 1016.1
20260503042849 62 260 0.0 0.0 0.00 0.00 0.00 81 1016.4
20260503041847 63 258 0.0 0.0 0.00 0.00 0.00 80 1016.4
20260503040842 63 260 0.0 1.0 0.00 0.00 0.00 80 1016.7
20260503035842 63 253 0.0 0.0 0.00 0.00 0.00 80 1016.4
20260503034842 63 258 0.0 0.0 0.00 0.00 0.00 80 1016.3
20260503033837 64 263 0.0 1.0 0.00 0.00 0.00 79 1016.2
20260503032832 63 263 0.0 0.0 0.00 0.00 0.00 79 1016.2
20260503031828 64 260 0.0 0.0 0.00 0.00 0.00 77 1015.9
20260503030827 65 255 0.0 0.0 0.00 0.00 0.00 76 1016.1
20260503025826 65 255 0.0 0.0 0.00 0.00 0.00 75 1016.2
20260503024826 66 271 0.0 1.0 0.00 0.00 0.00 74 1016.1
20260503023826 66 262 0.0 0.0 0.00 0.00 0.00 73 1016.0
20260503022826 67 262 0.0 0.0 0.00 0.00 0.00 72 1016.2
20260503021822 69 260 0.0 1.0 0.00 0.00 0.00 69 1016.1
20260503020822 70 260 0.0 1.0 0.00 0.00 0.00 68 1015.8
20260503015822 70 258 0.0 1.0 0.00 0.00 0.00 66 1015.4
20260503014820 71 263 0.0 0.0 0.00 0.00 0.00 68 1014.9
20260503013815 71 263 0.0 0.0 0.00 0.00 0.00 67 1015.1
20260503012810 72 263 0.0 0.0 0.00 0.00 0.00 67 1015.0
20260503011810 73 263 0.0 0.0 0.00 0.00 0.00 64 1014.9
20260503010809 74 261 0.0 0.0 0.00 0.00 0.00 65 1015.0
20260503005809 74 262 0.0 0.0 0.00 0.00 0.00 61 1015.0
20260503004808 74 260 0.0 0.0 0.00 0.00 0.00 62 1015.1
20260503003803 74 262 0.0 1.0 0.00 0.00 0.00 58 1015.1
20260503002803 75 254 0.0 1.0 0.00 0.00 0.00 59 1015.0
20260503001802 75 257 0.0 0.0 0.00 0.00 0.00 59 1015.3
20260503000802 75 253 0.0 0.0 0.00 0.00 0.00 57 1015.1
20260502235802 74 260 0.0 0.0 0.00 0.00 0.00 57 1015.2
20260502234802 74 264 0.0 1.0 0.00 0.00 0.00 58 1015.3
20260502233801 75 266 0.0 0.0 0.00 0.00 0.00 57 1015.4
20260502232800 74 265 0.0 1.0 0.00 0.00 0.00 60 1015.5
20260502231800 75 263 0.0 0.0 0.00 0.00 0.00 55 1015.7
20260502230756 75 261 0.0 1.0 0.00 0.00 0.00 55 1015.6
20260502225756 76 264 0.0 1.0 0.00 0.00 0.00 56 1015.6
20260502224755 75 262 0.0 1.0 0.00 0.00 0.00 57 1016.2
20260502223755 73 258 0.0 1.0 0.00 0.00 0.00 58 1016.3
20260502222751 72 268 0.0 1.0 0.00 0.00 0.00 58 1016.4
20260502221749 73 260 1.0 1.0 0.00 0.00 0.00 56 1016.5
20260502220749 72 261 0.0 1.0 0.00 0.00 0.00 60 1016.7
20260502215747 74 258 0.0 1.0 0.00 0.00 0.00 55 1016.9
20260502214742 71 243 0.0 1.0 0.00 0.00 0.00 60 1017.0
20260502213742 69 261 0.0 0.0 0.00 0.00 0.00 63 1017.0
20260502212738 69 264 0.0 1.0 0.00 0.00 0.00 62 1017.6
20260502211737 71 260 0.0 1.0 0.00 0.00 0.00 61 1017.5
20260502210737 69 257 0.0 1.0 0.00 0.00 0.00 62 1017.8
20260502205737 69 265 0.0 0.0 0.00 0.00 0.00 62 1017.8
20260502204737 68 307 1.0 1.0 0.00 0.00 0.00 63 1018.0
20260502203737 65 259 0.0 1.0 0.00 0.00 0.00 68 1018.2
20260502202735 67 257 0.0 1.0 0.00 0.00 0.00 66 1018.5
20260502201731 64 321 2.0 3.0 0.00 0.00 0.00 70 1018.4
20260502200729 62 266 0.0 2.0 0.00 0.00 0.00 71 1018.5
20260502195724 63 260 0.0 1.0 0.00 0.00 0.00 71 1018.6
20260502194723 60 260 0.0 1.0 0.00 0.00 0.00 74 1018.9